Weather History for Oakland, CA

Change the Weather History Date:

Sunday, March 16, 2014

  Actual Average Record
Temperature  
Mean Temperature 60 °F 54 °F  
Max Temperature 72 °F 63 °F 83 °F (2004)
Min Temperature 48 °F 46 °F 37 °F (1955)
Degree Days  
Heating Degree Days 5 11  
Month to date heating degree days 77 181  
Since 1 July heating degree days 1898 2203  
Cooling Degree Days 0 0  
Month to date cooling degree days 1 0  
Year to date cooling degree days 1 0  
Growing Degree Days 10 (Base 50)    
Moisture  
Dew Point 48 °F    
Average Humidity 68    
Maximum Humidity 89    
Minimum Humidity 47    
Precipitation  
Precipitation 0.00 in 0.11 in 0.95 in (1954)
Month to date precipitation 0.42 1.78  
Year to date precipitation 4.12 9.72  
Since 1 July precipitation 6.19 17.31  
Sea Level Pressure  
Sea Level Pressure 30.27 in    
Wind  
Wind Speed 8 mph (WNW)    
Max Wind Speed 21 mph    
Max Gust Speed 23 mph    
Visibility 10 miles    
Events Fog    
T = Trace of Precipitation, MM = Missing Value Source: NWS Daily Summary

Daily Weather History Graph

Daily Weather History Graph

Search for Another Location

Airport:

Trip Planner

Search our weather history database for the weather conditions in past years. The results will help you decide how hot, cold, wet, or windy it might be!

Date:

Astronomy

Mar. 16, 2014 Rise Set
Actual Time 7:18 AM PDT 7:17 PM PDT
Civil Twilight 6:52 AM PDT 7:43 PM PDT
Nautical Twilight 6:21 AM PDT 8:13 PM PDT
Astronomical Twilight 5:51 AM PDT 8:44 PM PDT
Moon 7:39 PM PDT (3/16) 7:05 AM PDT (3/16)
Length of Visible Light 12h 51m
Length of Day
11h 58m
Full, 100% of the Moon is Illuminated
Mar 16
Full
Mar 23
Last Quarter
Mar 30
New
Apr 7
First Quarter
Apr 15
Full

Hourly Weather History & Observations

Time (PDT) Temp. Dew Point Humidity Pressure Visibility Wind Dir Wind Speed Gust Speed Precip Events Conditions
12:53 AM 55.9 °F 50.0 °F 80% 30.30 in 10.0 mi NW 3.5 mph - N/A   Clear
1:53 AM 52.0 °F 48.0 °F 86% 30.30 in 10.0 mi Calm Calm - N/A   Scattered Clouds
2:53 AM 52.0 °F 48.9 °F 89% 30.30 in 10.0 mi Calm Calm - N/A   Scattered Clouds
3:53 AM 50.0 °F 46.9 °F 89% 30.29 in 10.0 mi Calm Calm - N/A   Partly Cloudy
4:53 AM 50.0 °F 46.0 °F 86% 30.29 in 10.0 mi NE 3.5 mph - N/A   Partly Cloudy
5:53 AM 50.0 °F 46.0 °F 86% 30.29 in 10.0 mi Calm Calm - N/A   Partly Cloudy
6:53 AM 50.0 °F 46.0 °F 86% 30.29 in 10.0 mi NE 3.5 mph - N/A Fog Shallow Fog
7:53 AM 50.0 °F 46.0 °F 86% 30.30 in 10.0 mi Calm Calm - N/A Fog Shallow Fog
8:53 AM 57.0 °F 51.1 °F 81% 30.31 in 10.0 mi NNW 3.5 mph - N/A   Scattered Clouds
9:53 AM 60.1 °F 52.0 °F 75% 30.32 in 10.0 mi WNW 5.8 mph - N/A   Scattered Clouds
10:53 AM 62.1 °F 52.0 °F 70% 30.32 in 10.0 mi WNW 6.9 mph - N/A   Scattered Clouds
11:53 AM 64.0 °F 51.1 °F 63% 30.30 in 10.0 mi West 6.9 mph - N/A   Mostly Cloudy
12:53 PM 68.0 °F 50.0 °F 52% 30.29 in 10.0 mi WNW 6.9 mph - N/A   Mostly Cloudy
1:53 PM 70.0 °F 48.0 °F 46% 30.27 in 10.0 mi West 8.1 mph - N/A   Mostly Cloudy
2:53 PM 68.0 °F 48.9 °F 50% 30.24 in 10.0 mi WNW 11.5 mph - N/A   Mostly Cloudy
3:53 PM 68.0 °F 48.9 °F 50% 30.22 in 10.0 mi WNW 12.7 mph - N/A   Mostly Cloudy
4:53 PM 64.0 °F 50.0 °F 60% 30.21 in 10.0 mi West 16.1 mph - N/A   Scattered Clouds
5:53 PM 59.0 °F 48.9 °F 69% 30.21 in 10.0 mi West 18.4 mph - N/A   Scattered Clouds
6:53 PM 59.0 °F 48.0 °F 67% 30.22 in 10.0 mi West 15.0 mph - N/A   Scattered Clouds
7:53 PM 57.0 °F 48.0 °F 72% 30.22 in 10.0 mi West 9.2 mph - N/A   Scattered Clouds
8:53 PM 55.9 °F 48.0 °F 75% 30.22 in 10.0 mi West 11.5 mph - N/A   Partly Cloudy
9:53 PM 55.9 °F 48.0 °F 75% 30.22 in 10.0 mi West 10.4 mph - N/A   Partly Cloudy
10:53 PM 55.0 °F 46.9 °F 74% 30.23 in 10.0 mi West 15.0 mph - N/A   Partly Cloudy
11:53 PM 55.0 °F 46.0 °F 72% 30.23 in 10.0 mi West 13.8 mph - N/A   Partly Cloudy